(78732) = 2000 GC128 = 2002 TH242

Discovered at Anderson Mesa on 2002-10-09 by LONEOS.

Orbit

Orbit type: Main Belt

Note: WebGL enabled browser required.

epoch2023-09-13.0
epoch JD2460200.5
perihelion date2019-02-03.56718
perihelion JD2458518.06718
argument of perihelion (°)324.99211
ascending node (°)73.62472
inclination (°)14.80648
eccentricity0.1243530
perihelion distance (AU)2.6913082
Tisserand w.r.t. Jupiter3.2
ΔV w.r.t. Earth (km/sec)11.2
semimajor axis (AU)3.0735083
mean anomaly (°)307.74429
mean daily motion (°/day)0.18291620
aphelion distance (AU)3.456
period (years)5.39
P-vector [x]0.76306024
P-vector [y]0.63585421
P-vector [z]0.11588137
Q-vector [x]-0.59801469
Q-vector [y]0.62656571
Q-vector [z]0.49979379
absolute magnitude14.85
phase slope0.15
uncertainty0
referenceMPEC 2024-A48
observations used1573
oppositions18
arc length (days)8571
first opposition used2000
last opposition used2023
residual rms (arc-secs)0.65
perturbers coarse indicatorM-v
perturbers precise indicator003Ek
first observation date used2000-04-03.0
last observation date used2023-09-21.0
computer nameMPCLINUX
JD of orbit computation2456819.469138
perihelion JD uncertainty (days)9.3181E-05
argument of perihelion uncertainty (°)2.5613E-05
ascending node uncertainty (°)1.8041E-05
inclination uncertainty (°)5.7318E-06
eccentricity uncertainty 6.1774E-08
perihelion distance uncertainty (AU)1.8814E-07
Minimum Orbit Intersection Distances (in AU)
for orbit epoch: 2460200.5, reference: E2024-A48
Mercury2.36985
Venus1.97361
Earth1.7136
Mars1.21372
Jupiter1.94581
Saturn6.21194
Uranus15.212
Neptune27.1731

Observations

1590 total observations over interval: 2000 04 03.46434 – 2023 09 21.169688
These data are available for download (format description).

Date (UT) J2000 RA J2000 Dec Magn Location Ref
2000 04 03.46434 15 37 45.93 -09 01 55.8 20.8 V 691 – Steward Observatory, Kitt Peak-Spacewatch MPS 12867
2000 04 03.48534 15 37 45.41 -09 01 54.1 20.9 V 691 – Steward Observatory, Kitt Peak-Spacewatch MPS 12867
2000 04 03.50307 15 37 44.96 -09 01 53.0 20.6 V 691 – Steward Observatory, Kitt Peak-Spacewatch MPS 12867
2000 04 10.40388 15 34 31.68 -08 53 30.5 21.2 V 691 – Steward Observatory, Kitt Peak-Spacewatch MPS 12867
2000 04 10.42486 15 34 30.97 -08 53 28.9 20.9 V 691 – Steward Observatory, Kitt Peak-Spacewatch MPS 12867
2000 04 10.44589 15 34 30.25 -08 53 27.0 20.7 V 691 – Steward Observatory, Kitt Peak-Spacewatch MPS 12867
2001 06 26.31217 20 20 56.07 -32 58 04.7 20.6   644 – Palomar Mountain/NEAT MPS 81502
2001 06 26.32271 20 20 55.71 -32 58 10.4 20.7   644 – Palomar Mountain/NEAT MPS 81502
2001 06 26.33331 20 20 55.30 -32 58 14.8 20.5   644 – Palomar Mountain/NEAT MPS 81502
2002 10 04.403860 02 51 34.868 +00 05 25.37 19.28 V 645 – Apache Point-Sloan Digital Sky Survey MPS 80139
2002 10 04.407332 02 51 34.748 +00 05 24.99 20.12   645 – Apache Point-Sloan Digital Sky Survey MPS 80139
2002 10 09.28497 02 48 38.11 -00 04 03.8 18.4 R 699 – Lowell Observatory-LONEOS MPS 64208
2002 10 09.30606 02 48 37.23 -00 04 05.9   699 – Lowell Observatory-LONEOS MPS 64208
2002 10 09.32707 02 48 36.37 -00 04 08.0   699 – Lowell Observatory-LONEOS MPS 64208
2002 10 09.34810 02 48 35.50 -00 04 10.9   699 – Lowell Observatory-LONEOS MPS 64208
2002 10 10.40031 02 47 53.23 -00 06 04.2 18.5   644 – Palomar Mountain/NEAT MPS 64208
2002 10 10.41062 02 47 52.81 -00 06 05.3 18.4   644 – Palomar Mountain/NEAT MPS 64208
2002 10 10.42099 02 47 52.38 -00 06 06.3 18.6   644 – Palomar Mountain/NEAT MPS 64208
2002 10 10.421640 02 47 52.306 -00 06 07.56 18.87 V 645 – Apache Point-Sloan Digital Sky Survey MPS 80139
2002 10 10.425112 02 47 52.162 -00 06 07.95 19.69   645 – Apache Point-Sloan Digital Sky Survey MPS 80139
2002 10 15.50818 02 44 10.85 -00 14 23.4 18.5   644 – Palomar Mountain/NEAT MPS 66194
2002 10 15.51969 02 44 10.31 -00 14 24.4 18.4   644 – Palomar Mountain/NEAT MPS 66194
2002 10 15.53023 02 44 09.82 -00 14 25.4 19.6   644 – Palomar Mountain/NEAT MPS 66194
2002 10 26.55372 02 34 54.88 -00 24 35.6 19.5   608 – Haleakala-AMOS MPS 66194
2002 10 26.56460 02 34 54.27 -00 24 35.4 19.6   608 – Haleakala-AMOS MPS 66194
2002 10 26.57574 02 34 53.69 -00 24 35.1 19.3   608 – Haleakala-AMOS MPS 66194
2002 10 28.36464 02 33 17.71 -00 24 57.3 18.4   644 – Palomar Mountain/NEAT MPS 66194
2002 10 28.38565 02 33 16.55 -00 24 57.2 18.5   644 – Palomar Mountain/NEAT MPS 66194
2002 10 28.40652 02 33 15.40 -00 24 57.3 18.7   644 – Palomar Mountain/NEAT MPS 66194
2002 10 30.25644 02 31 35.25 -00 24 54.4 18.4   704 – Lincoln Laboratory ETS, New Mexico MPS 66194
2002 10 30.27392 02 31 34.27 -00 24 53.7 18.5   704 – Lincoln Laboratory ETS, New Mexico MPS 66194
2002 10 30.29129 02 31 33.34 -00 24 54.2 18.7   704 – Lincoln Laboratory ETS, New Mexico MPS 66194
2002 10 30.30873 02 31 32.29 -00 24 53.9 18.8   704 – Lincoln Laboratory ETS, New Mexico MPS 66194
2002 10 30.32621 02 31 31.35 -00 24 54.0 18.9   704 – Lincoln Laboratory ETS, New Mexico MPS 66194
2002 10 31.293850 02 30 38.731 -00 24 39.82 18.67 V 645 – Apache Point-Sloan Digital Sky Survey MPS 80139
2002 10 31.297322 02 30 38.538 -00 24 39.82 19.56   645 – Apache Point-Sloan Digital Sky Survey MPS 80139
2002 11 05.22110 02 26 10.82 -00 21 24.9 18.4   704 – Lincoln Laboratory ETS, New Mexico MPS 66194
2002 11 05.23800 02 26 09.94 -00 21 23.7 18.6   704 – Lincoln Laboratory ETS, New Mexico MPS 66194
2002 11 05.25512 02 26 08.92 -00 21 22.9 18.6   704 – Lincoln Laboratory ETS, New Mexico MPS 66194
2002 11 05.27165 02 26 08.00 -00 21 21.8 18.6   704 – Lincoln Laboratory ETS, New Mexico MPS 66194
2002 11 05.28833 02 26 07.07 -00 21 20.3 18.9   704 – Lincoln Laboratory ETS, New Mexico MPS 66194
2002 11 07.252480 02 24 21.763 -00 19 01.15 18.71 V 645 – Apache Point-Sloan Digital Sky Survey MPS 80139
2002 11 07.255952 02 24 21.576 -00 19 00.88 19.54   645 – Apache Point-Sloan Digital Sky Survey MPS 80139
2002 11 30.17580 02 07 25.65 +00 53 33.6 19.1   704 – Lincoln Laboratory ETS, New Mexico MPS 68097
2002 11 30.19063 02 07 25.19 +00 53 37.3 19.4   704 – Lincoln Laboratory ETS, New Mexico MPS 68097
2002 11 30.20549 02 07 24.67 +00 53 43.0 19.3   704 – Lincoln Laboratory ETS, New Mexico MPS 68097
2002 12 06.47035 02 04 34.67 +01 27 26.2 20.5   608 – Haleakala-AMOS MPS 68097
2002 12 06.48081 02 04 34.40 +01 27 30.2 20.1   608 – Haleakala-AMOS MPS 68097
2002 12 06.49213 02 04 34.18 +01 27 33.2 20.7   608 – Haleakala-AMOS MPS 68097
2002 12 08.27635 02 03 56.43 +01 38 06.8 19.3   644 – Palomar Mountain/NEAT MPS 68097
2002 12 08.29807 02 03 56.00 +01 38 14.6 19.2   644 – Palomar Mountain/NEAT MPS 68097
2002 12 08.31924 02 03 55.54 +01 38 22.1 19.3   644 – Palomar Mountain/NEAT MPS 68097
2003 12 04.41836 09 40 09.75 +27 48 33.7 20.2   704 – Lincoln Laboratory ETS, New Mexico MPS 92729
2003 12 04.43030 09 40 09.91 +27 48 37.7 20.4   704 – Lincoln Laboratory ETS, New Mexico MPS 92729
2003 12 04.44235 09 40 10.12 +27 48 40.5 20.6   704 – Lincoln Laboratory ETS, New Mexico MPS 92729
2003 12 18.44802 09 42 44.27 +29 13 38.2 19.9   704 – Lincoln Laboratory ETS, New Mexico MPS 93700
2003 12 18.46077 09 42 44.16 +29 13 44.6 19.9   704 – Lincoln Laboratory ETS, New Mexico MPS 93700
2003 12 18.47441 09 42 44.26 +29 13 51.4 19.8   704 – Lincoln Laboratory ETS, New Mexico MPS 93700
2003 12 29.35094 09 41 11.35 +30 34 52.6 19.6   704 – Lincoln Laboratory ETS, New Mexico MPS 95800
2003 12 29.39187 09 41 10.58 +30 35 11.8 20.1   704 – Lincoln Laboratory ETS, New Mexico MPS 95800
2003 12 29.40543 09 41 10.34 +30 35 18.3 19.9   704 – Lincoln Laboratory ETS, New Mexico MPS 95800
2004 01 17.37104 09 31 12.56 +33 08 32.3 18.7   644 – Palomar Mountain/NEAT MPS 97005
2004 01 17.39257 09 31 11.57 +33 08 42.7 18.6   644 – Palomar Mountain/NEAT MPS 97005
2004 01 17.41311 09 31 10.62 +33 08 52.2 18.7   644 – Palomar Mountain/NEAT MPS 97005
2004 01 18.34892 09 30 28.75 +33 16 10.7 19.1 V 703 – Catalina Sky Survey MPS 97005
2004 01 18.36639 09 30 27.93 +33 16 19.0 19.5 V 703 – Catalina Sky Survey MPS 97005
2004 01 18.38356 09 30 26.98 +33 16 25.8 18.7 V 703 – Catalina Sky Survey MPS 97005
2004 01 18.40075 09 30 26.29 +33 16 34.7 19.4 V 703 – Catalina Sky Survey MPS 97005
2004 01 19.34045 09 29 43.03 +33 23 50.2 18.6 C 704 – Lincoln Laboratory ETS, New Mexico MPS 293957
2004 01 31.24722 09 19 31.64 +34 46 48.0 18.8 R 699 – Lowell Observatory-LONEOS MPS 97799
2004 01 31.26073 09 19 30.79 +34 46 53.1   699 – Lowell Observatory-LONEOS MPS 97799
2004 01 31.27422 09 19 30.02 +34 46 59.0   699 – Lowell Observatory-LONEOS MPS 97799
2004 01 31.28762 09 19 29.29 +34 47 03.3   699 – Lowell Observatory-LONEOS MPS 97799
2004 01 31.30273 09 19 28.64 +34 47 09.8 19.7   704 – Lincoln Laboratory ETS, New Mexico MPS 97799
2004 01 31.31571 09 19 27.83 +34 47 14.4 20.1   704 – Lincoln Laboratory ETS, New Mexico MPS 97799
2004 01 31.32802 09 19 27.11 +34 47 19.4 19.8   704 – Lincoln Laboratory ETS, New Mexico MPS 97799
2004 01 31.34030 09 19 26.36 +34 47 23.5 19.6   704 – Lincoln Laboratory ETS, New Mexico MPS 97799
2004 02 02.28586 09 17 39.15 +34 58 53.9 19.3   704 – Lincoln Laboratory ETS, New Mexico MPS 99919
2004 02 02.29858 09 17 38.44 +34 58 57.9 19.7   704 – Lincoln Laboratory ETS, New Mexico MPS 99919
2004 02 02.31105 09 17 37.68 +34 59 00.6 19.7   704 – Lincoln Laboratory ETS, New Mexico MPS 99919
2004 02 02.32350 09 17 37.02 +34 59 06.6 19.4   704 – Lincoln Laboratory ETS, New Mexico MPS 99919
2004 02 02.33587 09 17 36.29 +34 59 10.8 19.4   704 – Lincoln Laboratory ETS, New Mexico MPS 99919
2004 02 10.21814 09 10 18.53 +35 38 19.9 19.1   644 – Palomar Mountain/NEAT MPS 99919
2004 02 10.28719 09 10 14.63 +35 38 37.6 19.1   644 – Palomar Mountain/NEAT MPS 99919
2004 02 10.34977 09 10 11.06 +35 38 53.1 19.3   644 – Palomar Mountain/NEAT MPS 99919
2004 02 11.28808 09 09 19.69 +35 42 42.1 19.7   704 – Lincoln Laboratory ETS, New Mexico MPS 99919
2004 02 11.30006 09 09 19.05 +35 42 44.1 19.6   704 – Lincoln Laboratory ETS, New Mexico MPS 99919
